AF1HS Weather Reports


Display with metric or nautical units.
time (UTC)temp
F
wind
direction
speed
MPH
gust
MPH
rain 1hr
in
rain 24hr
in
rain mn
in
humidity
%
barometer
mb
20170922081703 63 346 0.0 0.0 0.00 0.00 0.00 64 1009.7
20170922080659 64 9 0.0 0.0 0.00 0.00 0.00 63 1010.0
20170922075850 64 353 0.0 0.0 0.00 0.00 0.00 62 1010.0
20170922074653 64 0 0.0 0.0 0.00 0.00 0.00 62 1010.0
20170922073702 64 331 0.0 0.0 0.00 0.00 0.00 62 1010.0
20170922072700 64 337 0.0 0.0 0.00 0.00 0.00 62 1010.0
20170922071851 64 354 0.0 0.0 0.00 0.00 0.00 61 1010.0
20170922070658 64 352 0.0 0.0 0.00 0.00 0.00 61 1010.0
20170922070234 64 351 0.0 0.0 0.00 0.00 0.00 61 1010.0
20170922065202 64 357 0.0 0.0 0.00 0.00 0.00 61 1010.0
20170922064202 64 349 0.0 0.0 0.00 0.00 0.00 61 1010.0
20170922063221 64 342 0.0 0.0 0.00 0.00 0.00 61 1010.0
20170922062219 64 343 0.0 0.0 0.00 0.00 0.00 62 1010.0
20170922061200 64 358 0.0 0.0 0.00 0.00 0.00 62 1010.3
20170922060205 65 352 0.0 0.0 0.00 0.00 0.00 61 1010.8
20170922055217 65 347 0.0 0.0 0.00 0.00 0.00 61 1011.0
20170922054348 65 346 0.0 0.0 0.00 0.00 0.00 61 1011.0
20170922053726 65 341 0.0 0.0 0.00 0.00 0.00 62 1011.0
20170922052700 65 346 0.0 0.0 0.00 0.00 0.00 62 1011.0
20170922051702 65 331 0.0 0.0 0.00 0.00 0.00 62 1011.0
20170922050700 65 353 0.0 0.0 0.00 0.00 0.00 62 1011.0
20170922045701 65 347 0.0 0.0 0.00 0.00 0.00 62 1011.0
20170922044849 65 328 0.0 0.0 0.00 0.00 0.00 62 1011.0
20170922043653 65 357 0.0 0.0 0.00 0.00 0.00 62 1011.0
20170922042355 65 338 0.0 0.0 0.00 0.00 0.00 63 1011.0
20170922041520 65 326 0.0 0.0 0.00 0.00 0.00 63 1011.0
20170922041022 65 337 0.0 0.0 0.00 0.00 0.00 63 1011.0
20170922040215 65 348 0.0 0.0 0.00 0.00 0.00 63 1011.0
20170922035200 66 351 0.0 0.0 0.00 0.00 0.00 64 1011.0
20170922034202 65 341 0.0 0.0 0.00 0.00 0.00 65 1011.0
20170922033350 65 339 0.0 0.0 0.00 0.00 0.00 65 1011.0
20170922032215 66 346 0.0 0.0 0.00 0.00 0.00 66 1011.0
20170922031201 66 331 0.0 0.0 0.00 0.00 0.00 66 1011.0
20170922030216 66 357 0.0 0.0 0.00 0.00 0.00 67 1011.0
20170922025350 66 338 0.0 0.0 0.00 0.00 0.00 68 1011.0
20170922024203 66 341 0.0 0.0 0.00 0.00 0.00 69 1011.0
20170922023203 66 337 0.0 0.0 0.00 0.00 0.00 69 1011.0
20170922022203 66 353 0.0 0.0 0.00 0.00 0.00 69 1011.0
20170922021218 66 353 0.0 0.0 0.00 0.00 0.00 69 1011.0
20170922020718 66 358 0.0 0.0 0.00 0.00 0.00 69 1011.0
20170922015842 66 345 0.0 0.0 0.00 0.00 0.00 69 1011.0
20170922014849 67 1 0.0 0.0 0.00 0.00 0.00 68 1011.0
20170922013701 67 2 0.0 0.0 0.00 0.00 0.00 69 1011.0
20170922012702 67 348 0.0 0.0 0.00 0.00 0.00 70 1011.0
20170922011645 67 336 0.0 0.0 0.00 0.00 0.00 71 1011.0
20170922010710 67 0 0.0 0.0 0.00 0.00 0.00 70 1011.0
20170922005700 67 350 0.0 0.0 0.00 0.00 0.00 70 1011.0
20170922004659 67 351 0.0 0.0 0.00 0.00 0.00 70 1011.0
20170922003702 68 353 0.0 0.0 0.00 0.00 0.00 70 1011.0
20170922003219 68 355 0.0 0.0 0.00 0.00 0.00 70 1011.0
20170922002716 68 339 0.0 0.0 0.00 0.00 0.00 70 1011.0
20170922001653 68 3 0.0 0.0 0.00 0.00 0.00 70 1011.0
20170922000650 68 345 0.0 0.0 0.00 0.00 0.00 69 1011.0
20170921235701 68 334 0.0 0.0 0.00 0.00 0.00 69 1011.0
20170921234656 68 334 0.0 0.0 0.00 0.00 0.00 69 1011.0
20170921233658 68 338 0.0 0.0 0.00 0.00 0.00 68 1011.0
20170921232654 68 345 0.0 0.0 0.00 0.00 0.00 68 1011.0
20170921231710 68 354 0.0 0.0 0.00 0.00 0.00 67 1011.0
20170921230700 68 328 0.0 0.0 0.00 0.00 0.00 67 1011.0
20170921225658 69 333 0.0 0.0 0.00 0.00 0.00 67 1011.0
20170921224650 69 345 0.0 0.0 0.00 0.00 0.00 65 1011.0
20170921223710 69 347 0.0 0.0 0.00 0.00 0.00 64 1011.0
20170921222659 70 340 0.0 0.0 0.00 0.00 0.00 63 1011.0
20170921221657 70 0 0.0 0.0 0.00 0.00 0.00 61 1010.4
20170921220650 70 1 0.0 0.0 0.00 0.00 0.00 59 1010.0
20170921215653 71 354 0.0 0.0 0.00 0.00 0.00 59 1010.0
20170921214652 71 344 0.0 0.0 0.00 0.00 0.00 60 1010.0
20170921213700 71 1 0.0 0.0 0.00 0.00 0.00 61 1010.0
20170921212658 71 10 0.0 0.0 0.00 0.00 0.00 62 1010.0
20170921211653 72 348 0.0 0.0 0.00 0.00 0.00 64 1010.0
20170921210851 72 358 0.0 0.0 0.00 0.00 0.00 68 1010.0
20170921205713 72 353 0.0 0.0 0.00 0.00 0.00 68 1010.0
20170921204700 72 350 0.0 0.0 0.00 0.00 0.00 67 1010.0
20170921203646 72 359 0.0 0.0 0.00 0.00 0.00 67 1010.0
20170921202701 72 358 0.0 0.0 0.00 0.00 0.00 66 1010.0
20170921201652 72 0 0.0 0.0 0.00 0.00 0.00 66 1010.0
20170921200659 72 351 0.0 0.0 0.00 0.00 0.00 65 1010.0
20170921195702 73 354 0.0 0.0 0.00 0.00 0.00 64 1010.0
20170921194649 73 358 0.0 0.0 0.00 0.00 0.00 63 1010.0
20170921193656 73 10 0.0 0.0 0.00 0.00 0.00 62 1010.0
20170921192645 73 10 0.0 0.0 0.00 0.00 0.00 61 1010.0
20170921191646 73 11 0.0 0.0 0.00 0.00 0.00 60 1010.0
20170921190701 73 352 0.0 0.0 0.00 0.00 0.00 61 1010.0
20170921185648 73 0 0.0 0.0 0.00 0.00 0.00 66 1010.0
20170921184624 73 9 0.0 0.0 0.00 0.00 0.00 67 1010.0
20170921184127 73 350 0.0 0.0 0.00 0.00 0.00 67 1010.0
20170921183627 73 349 0.0 0.0 0.00 0.00 0.00 67 1010.0
20170921182137 73 358 0.0 0.0 0.00 0.00 0.00 68 1010.0
20170921180651 74 15 0.0 0.0 0.00 0.00 0.00 69 1010.0
20170921175649 74 342 0.0 0.0 0.00 0.00 0.00 71 1010.0
20170921174655 74 331 0.0 0.0 0.00 0.00 0.00 72 1010.0
20170921173710 73 350 0.0 0.0 0.00 0.00 0.00 73 1010.0
20170921172653 73 336 0.0 0.0 0.00 0.00 0.00 72 1010.0
20170921171657 73 356 0.0 0.0 0.00 0.00 0.00 73 1010.0
20170921170652 73 336 0.0 0.0 0.00 0.00 0.00 73 1010.0
20170921165702 72 347 0.0 0.0 0.00 0.00 0.00 74 1010.0
20170921164656 72 345 0.0 0.0 0.00 0.00 0.00 72 1010.0
20170921163651 72 352 0.0 0.0 0.00 0.00 0.00 74 1010.0
20170921162648 72 345 0.0 0.0 0.00 0.00 0.00 74 1011.0
20170921161643 72 352 0.0 0.0 0.00 0.00 0.00 73 1011.0
20170921160647 72 345 0.0 0.0 0.00 0.08 0.00 75 1011.0
20170921155648 72 337 0.0 0.0 0.00 0.08 0.00 74 1011.0
20170921154648 72 341 0.0 0.0 0.00 0.08 0.00 75 1011.0
20170921153646 72 348 0.0 0.0 0.00 0.08 0.00 76 1011.0
20170921152659 71 6 0.0 0.0 0.00 0.08 0.00 76 1011.0
20170921151703 72 334 0.0 0.0 0.00 0.08 0.00 75 1011.0
20170921150649 72 1 0.0 0.0 0.00 0.08 0.00 74 1011.0
20170921145655 72 341 0.0 0.0 0.00 0.08 0.00 73 1011.0
20170921144702 72 355 0.0 0.0 0.00 0.08 0.00 73 1010.6
20170921143647 72 337 0.0 0.0 0.00 0.08 0.00 75 1010.0
20170921142650 71 341 0.0 0.0 0.00 0.08 0.00 76 1010.0
20170921141659 71 350 0.0 0.0 0.00 0.08 0.00 77 1010.0
20170921140653 70 348 0.0 0.0 0.00 0.08 0.00 78 1010.0
20170921135702 70 6 0.0 0.0 0.00 0.08 0.00 79 1010.0
20170921134648 70 327 0.0 0.0 0.00 0.08 0.00 80 1010.0
20170921133700 70 342 0.0 0.0 0.00 0.08 0.00 80 1010.0
20170921131700 70 348 0.0 0.0 0.00 0.12 0.00 82 1010.0
20170921130654 69 350 0.0 0.0 0.00 0.12 0.00 83 1010.0
20170921125653 69 346 0.0 0.0 0.00 0.12 0.00 83 1010.0
20170921124650 69 352 0.0 0.0 0.00 0.12 0.00 85 1010.0
20170921123659 69 347 0.0 0.0 0.00 0.12 0.00 85 1010.0
20170921122654 69 327 0.0 0.0 0.00 0.12 0.00 84 1010.0
20170921121855 69 331 0.0 0.0 0.00 0.12 0.00 84 1010.0
20170921120658 69 351 0.0 0.0 0.00 0.12 0.00 83 1010.0
20170921115659 69 339 0.0 0.0 0.00 0.12 0.00 83 1010.0
20170921114657 69 333 0.0 0.0 0.00 0.12 0.00 83 1009.3
20170921113657 69 341 0.0 0.0 0.00 0.12 0.00 83 1009.0
20170921112703 69 337 0.0 0.0 0.00 0.12 0.00 84 1009.0
20170921111856 69 344 0.0 0.0 0.00 0.12 0.00 86 1009.0
20170921110655 69 338 0.0 0.0 0.00 0.12 0.00 87 1009.0
20170921105653 69 345 0.0 0.0 0.00 0.12 0.00 87 1009.0
20170921104652 69 338 0.0 0.0 0.00 0.12 0.00 87 1009.0
20170921103650 69 340 0.0 0.0 0.00 0.12 0.00 87 1009.0
20170921102642 69 342 0.0 0.0 0.00 0.12 0.00 87 1009.0
20170921101644 69 344 0.0 0.0 0.00 0.12 0.00 88 1009.0
20170921094206 69 337 0.0 0.0 0.00 0.12 0.00 90 1008.0
20170921093721 69 345 0.0 0.0 0.00 0.12 0.00 89 1008.0
20170921092657 69 332 0.0 0.0 0.00 0.12 0.00 90 1008.0
20170921092223 69 325 0.0 0.0 0.00 0.12 0.00 90 1008.0
20170921091200 69 331 0.0 0.0 0.00 0.12 0.00 89 1008.0
20170921090355 69 334 0.0 0.0 0.00 0.12 0.00 89 1008.0
20170921085215 69 331 0.0 0.0 0.00 0.12 0.00 89 1008.0
20170921083704 69 349 0.0 0.0 0.00 0.12 0.00 90 1008.0
20170921082656 69 350 0.0 0.0 0.00 0.12 0.00 90 1008.0